Satellite: PO-28
Catalog number: 22829
Epoch time:      08072.48503248
Element set:    0896
Inclination:      098.3550 deg
RA of node:       038.2653 deg
Eccentricity:    0.0009997
Arg of perigee:   150.1885 deg
Mean anomaly:     209.9878 deg
Mean motion:   14.30182952 rev/day
Decay rate:       1.09e-06 rev/day^2
Epoch rev:           75430
Checksum:              343

Satellite: GO-32
Catalog number: 25397
Epoch time:      08072.22728217
Element set:    0549
Inclination:      098.3767 deg
RA of node:       112.1247 deg
Eccentricity:    0.0001704
Arg of perigee:   135.1617 deg
Mean anomaly:     224.9704 deg
Mean motion:   14.23139973 rev/day
Decay rate:        4.7e-07 rev/day^2
Epoch rev:           50242
Checksum:              296

Satellite: MO-46
Catalog number: 26548
Epoch time:      08072.48265399
Element set:    0047
Inclination:      064.5566 deg
RA of node:       069.5015 deg
Eccentricity:    0.0018874
Arg of perigee:   337.3042 deg
Mean anomaly:     022.7237 deg
Mean motion:   14.83234574 rev/day
Decay rate:       -1.1e-07 rev/day^2
Epoch rev:           40347
Checksum:              313

Satellite: NO-44
Catalog number: 26931
Epoch time:      08072.73485448
Element set:    0829
Inclination:      067.0530 deg
RA of node:       173.1277 deg
Eccentricity:    0.0005142
Arg of perigee:   276.9499 deg
Mean anomaly:     083.1029 deg
Mean motion:   14.29513798 rev/day
Decay rate:      -1.22e-06 rev/day^2
Epoch rev:           33662
Checksum:              323

Satellite: SO-50
Catalog number: 27607
Epoch time:      08071.74364814
Element set:    0551
Inclination:      064.5623 deg
RA of node:       349.5680 deg
Eccentricity:    0.0081697
Arg of perigee:   298.8189 deg
Mean anomaly:     060.4731 deg
Mean motion:   14.71334645 rev/day
Decay rate:        6.2e-07 rev/day^2
Epoch rev:           28063
Checksum:              325

Satellite: CO-55
Catalog number: 27844
Epoch time:      08072.94257333
Element set:    0257
Inclination:      098.7189 deg
RA of node:       082.5364 deg
Eccentricity:    0.0010618
Arg of perigee:   037.6076 deg
Mean anomaly:     322.5829 deg
Mean motion:   14.20565230 rev/day
Decay rate:        5.3e-07 rev/day^2
Epoch rev:           24377
Checksum:              318

Satellite: CO-57
Catalog number: 27848
Epoch time:      08072.92777620
Element set:    0210
Inclination:      098.7196 deg
RA of node:       081.6378 deg
Eccentricity:    0.0010429
Arg of perigee:   040.6776 deg
Mean anomaly:     319.5173 deg
Mean motion:   14.20376343 rev/day
Decay rate:        1.5e-07 rev/day^2
Epoch rev:           24374
Checksum:              319

Satellite: AO-51
Catalog number: 28375
Epoch time:      08072.64415909
Element set:    0052
Inclination:      098.0820 deg
RA of node:       102.6010 deg
Eccentricity:    0.0084970
Arg of perigee:   085.2852 deg
Mean anomaly:     275.8037 deg
Mean motion:   14.40599455 rev/day
Decay rate:        1.1e-07 rev/day^2
Epoch rev:           19450
Checksum:              298

Satellite: CO-56
Catalog number: 28941
Epoch time:      08073.80238799
Element set:     901
Inclination:      098.1030 deg
RA of node:       171.8968 deg
Eccentricity:    0.0183706
Arg of perigee:   026.9257 deg
Mean anomaly:     334.1262 deg
Mean motion:   15.51877395 rev/day
Decay rate:     2.6645e-04 rev/day^2
Epoch rev:           11522
Checksum:              340

Satellite: CP4
Catalog number: 31122
Epoch time:      08072.75503570
Element set:     283
Inclination:      098.0506 deg
RA of node:       141.8864 deg
Eccentricity:    0.0084404
Arg of perigee:   268.1429 deg
Mean anomaly:     091.0073 deg
Mean motion:   14.55096367 rev/day
Decay rate:       5.49e-06 rev/day^2
Epoch rev:            4805
Checksum:              297

Satellite: CP3
Catalog number: 31128
Epoch time:      08073.68210796
Element set:     280
Inclination:      098.0498 deg
RA of node:       141.1190 deg
Eccentricity:    0.0101811
Arg of perigee:   270.0099 deg
Mean anomaly:     088.9442 deg
Mean motion:   14.51922038 rev/day
Decay rate:       -4.8e-07 rev/day^2
Epoch rev:            4807
Checksum:              291

Satellite: LIBERT
Catalog number: 31129
Epoch time:      08073.66206968
Element set:     815
Inclination:      098.0488 deg
RA of node:       141.1315 deg
Eccentricity:    0.0101242
Arg of perigee:   270.0581 deg
Mean anomaly:     088.9001 deg
Mean motion:   14.52011177 rev/day
Decay rate:       3.36e-06 rev/day^2
Epoch rev:            4805
Checksum:              270

/EX
SB KEPS @ AMSAT  $ORB08073.W
Orbital Elements  08073.WEATHER

HR AMSAT ORBITAL ELEMENTS FOR WEATHER SATELLITES
FROM WA5QGD FORT WORTH,TX March 13, 2008
Send Subscribe/unsubscribe to KEPS at 
http://www.amsat.org/mailman/listinfo/keps
BID: ORB08073.W
TO ALL RADIO AMATEURS BT

Satellite: NOAA-10
Catalog number: 16969
Epoch time:      08072.90834617
Element set:    0043
Inclination:      098.7310 deg
RA of node:       095.0356 deg
Eccentricity:    0.0013202
Arg of perigee:   101.4210 deg
Mean anomaly:     258.8439 deg
Mean motion:   14.27352602 rev/day
Decay rate:       -6.4e-07 rev/day^2
Epoch rev:           11770
Checksum:              276

